Location: Newark
(30.0333°N, 31.2167°E)
Time: 06:39:27
(UTC+00:00)

Tiros 1 despin weight - Pass Details

Date: 28 January 2020
Orbit: 594 x 642 km, 48.2° (Epoch: 17 February)

Event Time Altitude Azimuth Distance (km) Brightness Sun altitude
Rises 05:26:07 0° 182° (S) 2,813 ? 6.7°
Reaches altitude 10° 05:29:36 10° 153° (SSE) 1,922 ? 7.4°
Maximum altitude 05:31:31 13° 127° (SE) 1,758 ? 7.8°
Drops below altitude 10° 05:33:27 10° 101° (E) 1,936 ? 8.2°
Sets 05:36:58 0° 73° (ENE) 2,853 ? 8.9°
